Location: Tucson
(32.2217°N, 110.9265°W)
Time: 06:20:18
(UTC-07:00)

Tiangong - Visible Passes

Search period start: 06 October 2022 00:00
Search period end: 16 October 2022 00:00
Orbit: 383 x 385 km, 41.5° (Epoch: 06 October)

Date Brightness Start Highest point End Pass type
(mag) Time Alt. Az. Time Alt. Az. Time Alt. Az.
06 Oct -0.3 19:51:13 10° WSW 19:53:05 31° W 19:53:05 31° W visible
07 Oct -2.2 18:51:14 10° SW 18:54:22 77° SSE 18:56:20 21° ENE visible
08 Oct -0.8 19:28:25 10° W 19:31:17 31° NNW 19:31:38 30° N visible
09 Oct -1.6 18:28:06 10° WSW 18:31:11 53° NNW 18:34:16 10° NE visible
09 Oct 1.1 20:06:13 10° NW 20:06:47 13° NW 20:06:47 13° NW visible
10 Oct -0.1 19:05:36 10° WNW 19:08:09 22° NNW 19:09:37 16° NNE visible
11 Oct 0.6 19:43:17 10° NW 19:44:31 14° NNW 19:44:31 14° NNW visible
12 Oct 0.1 18:42:37 10° NW 18:44:50 17° N 18:47:03 10° NE visible
13 Oct 0.2 19:19:58 10° NW 19:21:54 15° N 19:21:55 15° N visible
14 Oct 0.2 18:19:22 10° NW 18:21:21 15° N 18:23:19 10° NE visible
14 Oct 1.1 19:56:27 10° NW 19:56:36 11° NW 19:56:36 11° NW visible
15 Oct 0.0 18:56:11 10° NW 18:58:19 16° N 18:59:06 15° NNE visible
